Tracking 35331 objects as of 16-Sep-2026
HD Live streaming from Space Station
objects crossing your sky now

STARLINK-37905

Track STARLINK-37905 now!
10-day predictions
STARLINK-37905 is classified as:


NORAD ID: 69946
Int'l Code: 2026-157D
Launch date: July 9, 2026
Source: United States (US)
Launch site: AIR FORCE EASTERN TEST RANGE (AFETR)
Your satellite tracking list
Your tracking list is empty




NASA's NSSDC Master Catalog

Two Line Element Set (TLE):
1 69946U 26157D   26258.69747140  .00022111  00000-0  66324-3 0  9997
2 69946  53.1604 356.3107 0001284  72.7203 287.3940 15.34417095 10638
Source of the keplerian elements: AFSPC